Tracking 20621 objects as of 31-Mar-2020
HD Live streaming from Space Station
objects crossing your sky now

ARIANE 1 DEB

Track ARIANE 1 DEB now!


NORAD ID: 27732
Int'l Code: 1979-104S
Perigee: 904.3 km
Apogee: 40,808.9 km
Inclination: 16.0 °
Period: 745.2 minutes
Semi major axis: 27227 km
RCS: 0.2067 m2 (medium)
Launch date: December 24, 1979
Source: European Space Agency (ESA)
Launch site: FRENCH GUIANA (FRGUI)

Note: This is SATELLITE DEBRIS
aabbcc
Your satellite tracking list
Your tracking list is empty




NASA's NSSDC Master Catalog

Two Line Element Set (TLE):
1 27732U 79104S   20089.54814244 -.00000190  00000-0 -11882-1 0  9996
2 27732  15.9565 287.1754 7327968  69.9737 350.7961  1.93236379135071
Source of the keplerian elements: AFSPC